Weather History for Wildwood, NJ

Change the Weather History Date:

Wednesday, February 6, 2013

  Actual Average Record
Temperature  
Mean Temperature 34 °F -  
Max Temperature 41 °F 40 °F 69 °F (2008)
Min Temperature 26 °F 28 °F 12 °F (2007)
Degree Days  
Heating Degree Days 32    
Moisture  
Dew Point 26 °F    
Average Humidity 72    
Maximum Humidity 87    
Minimum Humidity 53    
Precipitation  
Precipitation 0.00 in - - ()
Sea Level Pressure  
Sea Level Pressure 30.15 in    
Wind  
Wind Speed 5 mph (NW)    
Max Wind Speed 16 mph    
Max Gust Speed 23 mph    
Visibility 10 miles    
Events      
Averages and records for this station are not official NWS values.
T = Trace of Precipitation, MM = Missing Value Source: NWS Daily Summary

Daily Weather History Graph

Daily Weather History Graph

Search for Another Location

Airport:

Trip Planner

Search our weather history database for the weather conditions in past years. The results will help you decide how hot, cold, wet, or windy it might be!

Date:

Astronomy

Feb. 06, 2013 Rise Set
Actual Time 7:01 AM EST 5:26 PM EST
Civil Twilight 6:33 AM EST 5:54 PM EST
Nautical Twilight 6:01 AM EST 6:26 PM EST
Astronomical Twilight 5:30 AM EST 6:57 PM EST
Moon 3:41 AM EST (2/6) 1:43 PM EST (2/6)
Length of Visible Light 11h 21m
Length of Day
10h 25m
Waning Crescent, 17% of the Moon is Illuminated
Feb 6
Waning Crescent
Feb 10
New
Feb 17
First Quarter
Feb 25
Full
Mar 4
Last Quarter

Hourly Weather History & Observations

Time (EST) Temp. Windchill Dew Point Humidity Pressure Visibility Wind Dir Wind Speed Gust Speed Precip Events Conditions
12:15 AM 33.8 °F 30.8 °F 30.2 °F 87% 29.92 in - NNE 3.5 mph - N/A   Overcast
12:35 AM 33.8 °F 29.6 °F 30.2 °F 87% 29.93 in - NNW 4.6 mph - N/A   Overcast
12:55 AM 33.8 °F 29.6 °F 30.2 °F 87% 29.94 in - NNW 4.6 mph - N/A   Overcast
1:15 AM 33.8 °F 30.8 °F 30.2 °F 87% 29.94 in - North 3.5 mph - N/A   Overcast
1:35 AM 33.8 °F - 30.2 °F 87% 29.94 in - Calm Calm - N/A   Overcast
1:55 AM 33.8 °F - 30.2 °F 87% 29.95 in - Calm Calm - N/A   Overcast
2:15 AM 33.8 °F - 30.2 °F 87% 29.95 in - Calm Calm - N/A   Overcast
2:35 AM 33.8 °F 30.8 °F 30.2 °F 87% 29.96 in - NW 3.5 mph - N/A   Unknown
2:55 AM 33.8 °F - 30.2 °F 87% 29.96 in - Calm Calm - N/A   Unknown
3:15 AM 32.0 °F - 28.4 °F 87% 29.96 in - Calm Calm - N/A   Unknown
3:35 AM 32.0 °F 28.7 °F 28.4 °F 87% 29.97 in - NW 3.5 mph - N/A   Unknown
3:55 AM 32.0 °F 28.7 °F 28.4 °F 87% 29.97 in - NNW 3.5 mph - N/A   Unknown
4:15 AM 32.0 °F 27.5 °F 28.4 °F 87% 29.97 in - NW 4.6 mph - N/A   Unknown
4:35 AM 32.0 °F 28.7 °F 28.4 °F 87% 29.99 in - NW 3.5 mph - N/A   Unknown
4:55 AM 32.0 °F - 28.4 °F 87% 29.99 in - Calm Calm - N/A   Mostly Cloudy
5:15 AM 32.0 °F - 28.4 °F 87% 30.00 in - Calm Calm - N/A   Overcast
5:35 AM 32.0 °F - 28.4 °F 87% 30.01 in - Calm Calm - N/A   Overcast
5:55 AM 33.8 °F 30.8 °F 30.2 °F 87% 30.03 in - NNW 3.5 mph - N/A   Overcast
6:15 AM 33.8 °F 30.8 °F 30.2 °F 87% 30.04 in - NNW 3.5 mph - N/A   Overcast
6:35 AM 33.8 °F 29.6 °F 30.2 °F 87% 30.04 in - North 4.6 mph - N/A   Overcast
6:55 AM 33.8 °F 29.6 °F 28.4 °F 81% 30.06 in - NW 4.6 mph - N/A   Overcast
7:15 AM 33.8 °F 30.8 °F 28.4 °F 81% 30.08 in - NNW 3.5 mph - N/A   Overcast
7:35 AM 33.8 °F 27.7 °F 28.4 °F 81% 30.09 in - NNW 6.9 mph - N/A   Partly Cloudy
7:55 AM 33.8 °F 29.6 °F 28.4 °F 81% 30.10 in - North 4.6 mph - N/A   Clear
8:15 AM 33.8 °F 29.6 °F 28.4 °F 81% 30.11 in - North 4.6 mph - N/A   Clear
8:35 AM 35.6 °F 29.9 °F 28.4 °F 75% 30.12 in - NNW 6.9 mph - N/A   Clear
8:55 AM 35.6 °F 29.2 °F 26.6 °F 70% 30.13 in - North 8.1 mph - N/A   Clear
9:15 AM 35.6 °F 30.7 °F 26.6 °F 70% 30.13 in - NNW 5.8 mph - N/A   Clear
9:35 AM 37.4 °F 30.8 °F 26.6 °F 65% 30.15 in 9.0 mi NNW 9.2 mph - N/A   Clear
9:55 AM 37.4 °F 30.8 °F 26.6 °F 65% 30.16 in 8.0 mi NW 9.2 mph - N/A   Clear
10:15 AM 37.4 °F 31.4 °F 28.4 °F 70% 30.16 in 8.0 mi NW 8.1 mph - N/A   Clear
10:35 AM 39.2 °F 33.6 °F 26.6 °F 61% 30.17 in 10.0 mi NW 8.1 mph - N/A   Clear
10:55 AM 39.2 °F 33.6 °F 26.6 °F 61% 30.18 in 10.0 mi NNW 8.1 mph 18.4 mph N/A   Clear
11:15 AM 39.2 °F 31.2 °F 26.6 °F 61% 30.17 in 10.0 mi NNW 13.8 mph 18.4 mph N/A   Clear
11:35 AM 41.0 °F 34.3 °F 26.6 °F 57% 30.17 in 10.0 mi NW 11.5 mph 19.6 mph N/A   Clear
11:55 AM 41.0 °F 34.3 °F 24.8 °F 53% 30.17 in 10.0 mi NW 11.5 mph 19.6 mph N/A   Clear
12:15 PM 41.0 °F 35.8 °F 26.6 °F 57% 30.18 in 10.0 mi NW 8.1 mph 18.4 mph N/A   Clear
12:35 PM 41.0 °F 35.2 °F 26.6 °F 57% 30.17 in 10.0 mi WNW 9.2 mph - N/A   Clear
12:55 PM 39.2 °F 30.8 °F 26.6 °F 61% 30.17 in 10.0 mi WNW 15.0 mph 23.0 mph N/A   Clear
1:15 PM 39.2 °F 32.5 °F 26.6 °F 61% 30.18 in 10.0 mi WNW 10.4 mph 20.7 mph N/A   Clear
1:35 PM 39.2 °F 31.2 °F 26.6 °F 61% 30.18 in 10.0 mi NW 13.8 mph 19.6 mph N/A   Clear
1:55 PM 39.2 °F 31.2 °F 24.8 °F 56% 30.18 in 10.0 mi NW 13.8 mph 20.7 mph N/A   Clear
2:15 PM 39.2 °F 30.8 °F 26.6 °F 61% 30.19 in 10.0 mi WNW 15.0 mph 20.7 mph N/A   Clear
2:35 PM 39.2 °F 33.0 °F 26.6 °F 61% 30.19 in 10.0 mi WNW 9.2 mph 20.7 mph N/A   Clear
2:55 PM 39.2 °F 32.0 °F 26.6 °F 61% 30.19 in 10.0 mi NW 11.5 mph 18.4 mph N/A   Clear
3:15 PM 39.2 °F 30.5 °F 26.6 °F 61% 30.20 in 10.0 mi NW 16.1 mph 20.7 mph N/A   Clear
3:35 PM 39.2 °F 33.0 °F 26.6 °F 61% 30.20 in 10.0 mi NNW 9.2 mph 19.6 mph N/A   Clear
3:55 PM 39.2 °F 31.6 °F 24.8 °F 56% 30.20 in 10.0 mi NW 12.7 mph 16.1 mph N/A   Clear
4:15 PM 39.2 °F 32.0 °F 26.6 °F 61% 30.20 in 10.0 mi NW 11.5 mph - N/A   Clear
4:35 PM 39.2 °F 34.2 °F 24.8 °F 56% 30.21 in 10.0 mi NW 6.9 mph 17.3 mph N/A   Clear
4:55 PM 37.4 °F 32.1 °F 24.8 °F 60% 30.22 in 10.0 mi NW 6.9 mph - N/A   Clear
5:15 PM 37.4 °F 30.3 °F 26.6 °F 65% 30.23 in 10.0 mi NW 10.4 mph - N/A   Clear
5:35 PM 37.4 °F 32.1 °F 24.8 °F 60% 30.24 in 10.0 mi NW 6.9 mph - N/A   Clear
5:55 PM 37.4 °F 32.1 °F 24.8 °F 60% 30.26 in 10.0 mi NW 6.9 mph - N/A   Clear
6:15 PM 37.4 °F 32.8 °F 24.8 °F 60% 30.27 in 10.0 mi NW 5.8 mph - N/A   Clear
6:35 PM 35.6 °F 31.7 °F 24.8 °F 65% 30.28 in 10.0 mi NW 4.6 mph - N/A   Clear
6:55 PM 35.6 °F 30.7 °F 24.8 °F 65% 30.29 in - NW 5.8 mph - N/A   Clear
7:15 PM 35.6 °F 31.7 °F 24.8 °F 65% 30.29 in - NNW 4.6 mph - N/A   Clear
7:35 PM 35.6 °F 30.7 °F 24.8 °F 65% 30.30 in - NNW 5.8 mph - N/A   Clear
7:55 PM 35.6 °F - 23.0 °F 60% 30.31 in - North - - N/A   Clear
8:15 PM 33.8 °F 30.8 °F 23.0 °F 65% 30.31 in - NNW 3.5 mph - N/A   Clear
8:35 PM 32.0 °F 27.5 °F 21.2 °F 64% 30.31 in - North 4.6 mph - N/A   Clear
8:55 PM 32.0 °F - 21.2 °F 64% 30.32 in - Calm Calm - N/A   Clear
9:15 PM 30.2 °F - 21.2 °F 69% 30.34 in - Calm Calm - N/A   Clear
9:35 PM 28.4 °F - 19.4 °F 69% 30.34 in - Calm Calm - N/A   Clear
9:55 PM 28.4 °F - 21.2 °F 74% 30.35 in - Calm Calm - N/A   Clear
10:15 PM 26.6 °F - 19.4 °F 74% 30.36 in - Calm Calm - N/A   Clear
10:35 PM 28.4 °F - 21.2 °F 74% 30.36 in - Calm Calm - N/A   Clear
10:55 PM 28.4 °F - 21.2 °F 74% 30.36 in - Calm Calm - N/A   Clear
11:15 PM 26.6 °F - 19.4 °F 74% 30.36 in - Calm Calm - N/A   Clear
11:35 PM 26.6 °F - 21.2 °F 80% 30.36 in - Calm Calm - N/A   Clear
11:55 PM 26.6 °F - 21.2 °F 80% 30.36 in - Calm Calm - N/A   Clear